Wildwood, NJ

8:50 PM EDT on September 23, 2017 (GMT -0400)
Cape May County

Weather History for KWWD - January, 2013

Change the Weather History Date:

Friday, January 4, 2013

  Actual Average Record
Temperature  
Mean Temperature 37 °F -  
Max Temperature 39 °F 42 °F 64 °F (1998)
Min Temperature 35 °F 30 °F 5 °F (2014)
Degree Days  
Heating Degree Days 28    
Moisture  
Dew Point 22 °F    
Average Humidity 55    
Maximum Humidity 65    
Minimum Humidity 48    
Precipitation  
Precipitation 0.00 in - - ()
Sea Level Pressure  
Sea Level Pressure 30.14 in    
Wind  
Wind Speed 12 mph (West)    
Max Wind Speed 18 mph    
Max Gust Speed 28 mph    
Visibility 10 miles    
Events      
Averages and records for this station are not official NWS values.
T = Trace of Precipitation, MM = Missing Value Source: NWS Daily Summary

Daily Weather History Graph

Daily Weather History Graph

Search for Another Location

Airport or City:

Trip Planner

Search our weather history database for the weather conditions in past years. The results will help you decide how hot, cold, wet, or windy it might be!

Date:

Astronomy

Jan. 04, 2013 Rise Set
Actual Time 7:18 AM EST 4:50 PM EST
Civil Twilight 6:49 AM EST 5:20 PM EST
Nautical Twilight 6:15 AM EST 5:53 PM EST
Astronomical Twilight 5:43 AM EST 6:26 PM EST
Moon No Moon Rise 11:04 AM EST (1/4)
Length of Visible Light 10h 31m
Length of Day
9h 32m
Waning Gibbous, 55% of the Moon is Illuminated
Jan 4
Waning Gibbous
Jan 4
Last Quarter
Jan 11
New
Jan 18
First Quarter
Jan 26
Full

Hourly Weather History & Observations

Time (EST) Temp. Windchill Dew Point Humidity Pressure Visibility Wind Dir Wind Speed Gust Speed Precip Events Conditions
12:15 AM 35.6 °F 27.5 °F 21.2 °F 56% 30.17 in 10.0 mi West 11.5 mph 17.3 mph N/A   Clear
12:35 AM 35.6 °F 27.5 °F 21.2 °F 56% 30.16 in 10.0 mi West 11.5 mph 16.1 mph N/A   Clear
12:55 AM 35.6 °F 27.5 °F 23.0 °F 60% 30.16 in 10.0 mi West 11.5 mph 16.1 mph N/A   Clear
1:15 AM 35.6 °F 29.9 °F 23.0 °F 60% 30.16 in 10.0 mi West 6.9 mph - N/A   Clear
1:35 AM 35.6 °F 28.0 °F 24.8 °F 65% 30.16 in 10.0 mi West 10.4 mph 16.1 mph N/A   Clear
1:55 AM 35.6 °F 28.6 °F 24.8 °F 65% 30.16 in 10.0 mi West 9.2 mph - N/A   Clear
2:35 AM 35.6 °F 28.0 °F 24.8 °F 65% 30.17 in 10.0 mi West 10.4 mph - N/A   Clear
2:55 AM 35.6 °F 28.0 °F 24.8 °F 65% 30.17 in 10.0 mi West 10.4 mph - N/A   Clear
3:15 AM 35.6 °F 27.5 °F 24.8 °F 65% 30.17 in 10.0 mi West 11.5 mph 16.1 mph N/A   Clear
3:35 AM 35.6 °F 28.6 °F 24.8 °F 65% 30.17 in 10.0 mi West 9.2 mph 17.3 mph N/A   Clear
3:55 AM 35.6 °F 28.0 °F 23.0 °F 60% 30.17 in 10.0 mi West 10.4 mph - N/A   Clear
4:15 AM 35.6 °F 27.1 °F 23.0 °F 60% 30.17 in 10.0 mi West 12.7 mph 17.3 mph N/A   Clear
4:35 AM 35.6 °F 27.5 °F 23.0 °F 60% 30.17 in 10.0 mi WNW 11.5 mph 17.3 mph N/A   Clear
4:55 AM 35.6 °F 29.2 °F 21.2 °F 56% 30.17 in 10.0 mi WNW 8.1 mph 16.1 mph N/A   Clear
5:15 AM 35.6 °F 29.2 °F 21.2 °F 56% 30.17 in 10.0 mi WNW 8.1 mph - N/A   Clear
5:35 AM 35.6 °F 28.6 °F 21.2 °F 56% 30.17 in 10.0 mi WNW 9.2 mph - N/A   Clear
5:55 AM 35.6 °F 28.6 °F 21.2 °F 56% 30.17 in 10.0 mi WNW 9.2 mph - N/A   Clear
6:15 AM 35.6 °F 28.0 °F 21.2 °F 56% 30.18 in 10.0 mi WNW 10.4 mph - N/A   Clear
6:35 AM 35.6 °F 28.0 °F 21.2 °F 56% 30.18 in 10.0 mi West 10.4 mph - N/A   Clear
6:55 AM 35.6 °F 28.0 °F 21.2 °F 56% 30.19 in 10.0 mi WNW 10.4 mph 16.1 mph N/A   Scattered Clouds
7:15 AM 35.6 °F 28.6 °F 21.2 °F 56% 30.19 in 10.0 mi WNW 9.2 mph 17.3 mph N/A   Scattered Clouds
7:35 AM 35.6 °F 29.2 °F 21.2 °F 56% 30.19 in 10.0 mi WNW 8.1 mph - N/A   Clear
7:55 AM 35.6 °F 28.0 °F 21.2 °F 56% 30.19 in 10.0 mi WNW 10.4 mph - N/A   Clear
8:15 AM 35.6 °F 27.5 °F 19.4 °F 52% 30.18 in 10.0 mi WNW 11.5 mph - N/A   Clear
8:35 AM 35.6 °F 27.1 °F 19.4 °F 52% 30.19 in 10.0 mi WNW 12.7 mph - N/A   Clear
8:55 AM 35.6 °F 26.6 °F 19.4 °F 52% 30.18 in 10.0 mi WNW 13.8 mph 19.6 mph N/A   Clear
9:15 AM 35.6 °F 26.6 °F 19.4 °F 52% 30.18 in 10.0 mi WNW 13.8 mph 20.7 mph N/A   Clear
9:35 AM 35.6 °F 26.2 °F 19.4 °F 52% 30.18 in 10.0 mi WNW 15.0 mph 19.6 mph N/A   Clear
9:55 AM 35.6 °F 26.2 °F 19.4 °F 52% 30.18 in 10.0 mi WNW 15.0 mph 27.6 mph N/A   Clear
10:15 AM 37.4 °F 29.8 °F 19.4 °F 48% 30.19 in 10.0 mi WNW 11.5 mph 23.0 mph N/A   Clear
10:35 AM 37.4 °F 28.5 °F 19.4 °F 48% 30.18 in 10.0 mi WNW 15.0 mph 24.2 mph N/A   Clear
10:55 AM 37.4 °F 27.5 °F 19.4 °F 48% 30.17 in 10.0 mi West 18.4 mph 25.3 mph N/A   Partly Cloudy
11:15 AM 37.4 °F 28.2 °F 19.4 °F 48% 30.16 in 10.0 mi West 16.1 mph 23.0 mph N/A   Mostly Cloudy
11:35 AM 37.4 °F 27.8 °F 19.4 °F 48% 30.15 in 10.0 mi West 17.3 mph 24.2 mph N/A   Overcast
11:55 AM 37.4 °F 28.5 °F 19.4 °F 48% 30.15 in 10.0 mi West 15.0 mph 20.7 mph N/A   Overcast
12:15 PM 37.4 °F 28.9 °F 19.4 °F 48% 30.14 in 10.0 mi WNW 13.8 mph 20.7 mph N/A   Overcast
12:35 PM 37.4 °F 28.5 °F 19.4 °F 48% 30.13 in 10.0 mi West 15.0 mph 23.0 mph N/A   Overcast
12:55 PM 37.4 °F 27.8 °F 21.2 °F 52% 30.13 in 10.0 mi West 17.3 mph 26.5 mph N/A   Overcast
1:15 PM 37.4 °F 29.3 °F 21.2 °F 52% 30.11 in 10.0 mi West 12.7 mph 19.6 mph N/A   Mostly Cloudy
1:35 PM 37.4 °F 27.8 °F 21.2 °F 52% 30.10 in 10.0 mi West 17.3 mph - N/A   Partly Cloudy
1:55 PM 39.2 °F 30.8 °F 21.2 °F 49% 30.08 in 10.0 mi WNW 15.0 mph 23.0 mph N/A   Clear
2:15 PM 39.2 °F 31.6 °F 21.2 °F 49% 30.08 in 10.0 mi WNW 12.7 mph 21.9 mph N/A   Clear
2:35 PM 39.2 °F 31.6 °F 23.0 °F 52% 30.08 in 10.0 mi WNW 12.7 mph 17.3 mph N/A   Clear
2:55 PM 39.2 °F 31.2 °F 21.2 °F 49% 30.08 in 10.0 mi West 13.8 mph 19.6 mph N/A   Clear
3:15 PM 39.2 °F 32.0 °F 23.0 °F 52% 30.08 in 10.0 mi West 11.5 mph 18.4 mph N/A   Clear
3:35 PM 39.2 °F 33.0 °F 21.2 °F 49% 30.09 in 10.0 mi West 9.2 mph 19.6 mph N/A   Clear
3:55 PM 39.2 °F 32.5 °F 21.2 °F 49% 30.08 in 10.0 mi West 10.4 mph 16.1 mph N/A   Clear
4:15 PM 39.2 °F 31.2 °F 23.0 °F 52% 30.08 in 10.0 mi West 13.8 mph 17.3 mph N/A   Clear
4:35 PM 39.2 °F 33.0 °F 21.2 °F 49% 30.07 in 10.0 mi West 9.2 mph - N/A   Clear
4:55 PM 39.2 °F 31.2 °F 21.2 °F 49% 30.07 in 10.0 mi West 13.8 mph 19.6 mph N/A   Clear
5:15 PM 37.4 °F 29.8 °F 21.2 °F 52% 30.07 in 10.0 mi West 11.5 mph 18.4 mph N/A   Clear
5:35 PM 37.4 °F 29.3 °F 23.0 °F 56% 30.07 in 10.0 mi West 12.7 mph - N/A   Clear
6:15 PM 37.4 °F 30.3 °F 24.8 °F 60% 30.08 in 10.0 mi WSW 10.4 mph - N/A   Clear
6:35 PM 37.4 °F 30.8 °F 24.8 °F 60% 30.08 in 10.0 mi WSW 9.2 mph - N/A   Clear
6:55 PM 37.4 °F 30.8 °F 23.0 °F 56% 30.08 in 10.0 mi WSW 9.2 mph - N/A   Clear
7:15 PM 37.4 °F 31.4 °F 24.8 °F 60% 30.09 in 10.0 mi West 8.1 mph 16.1 mph N/A   Clear
7:35 PM 37.4 °F 30.3 °F 23.0 °F 56% 30.10 in 10.0 mi West 10.4 mph - N/A   Clear
7:55 PM 37.4 °F 30.3 °F 24.8 °F 60% 30.11 in 10.0 mi West 10.4 mph - N/A   Clear
8:15 PM 37.4 °F 30.3 °F 24.8 °F 60% 30.11 in 10.0 mi West 10.4 mph 17.3 mph N/A   Clear
8:35 PM 37.4 °F 31.4 °F 23.0 °F 56% 30.11 in 10.0 mi West 8.1 mph - N/A   Clear
8:55 PM 37.4 °F 29.3 °F 23.0 °F 56% 30.12 in 10.0 mi West 12.7 mph 16.1 mph N/A   Clear
9:15 PM 37.4 °F 29.3 °F 21.2 °F 52% 30.11 in 10.0 mi West 12.7 mph 17.3 mph N/A   Clear
9:35 PM 37.4 °F 29.8 °F 23.0 °F 56% 30.12 in 10.0 mi West 11.5 mph - N/A   Clear
9:55 PM 37.4 °F 29.8 °F 21.2 °F 52% 30.13 in 10.0 mi West 11.5 mph - N/A   Clear
10:35 PM 37.4 °F 28.5 °F 21.2 °F 52% 30.13 in 10.0 mi West 15.0 mph 21.9 mph N/A   Clear
10:55 PM 37.4 °F 28.5 °F 21.2 °F 52% 30.13 in 10.0 mi West 15.0 mph 23.0 mph N/A   Clear
11:15 PM 37.4 °F 28.5 °F 21.2 °F 52% 30.13 in 10.0 mi West 15.0 mph - N/A   Clear
11:35 PM 37.4 °F 28.5 °F 21.2 °F 52% 30.13 in 10.0 mi West 15.0 mph 23.0 mph N/A   Clear
11:55 PM 37.4 °F 29.3 °F 21.2 °F 52% 30.13 in 10.0 mi West 12.7 mph 21.9 mph N/A   Clear